Willimantic, CT

3:53 AM EDT on September 18, 2019 (GMT -0400)
Windham

Weather History for KIJD - August, 2019

Change the Weather History Date:

Thursday, August 22, 2019

  Actual Average Record
Temperature  
Mean Temperature 78 °F -  
Max Temperature 88 °F 78 °F 90 °F (1955)
Min Temperature 68 °F 53 °F 37 °F (1982)
Cooling Degree Days 12    
Growing Degree Days 28 (Base 50)    
Moisture  
Dew Point 70 °F    
Average Humidity 88    
Maximum Humidity 100    
Minimum Humidity 48    
Precipitation  
Precipitation 0.00 in - - ()
Sea Level Pressure  
Sea Level Pressure 29.86 in    
Wind  
Wind Speed 1 mph ()    
Max Wind Speed 10 mph    
Max Gust Speed -    
Visibility 5.6 miles    
Events Fog , Rain    
Averages and records for this station are not official NWS values.
T = Trace of Precipitation, MM = Missing Value Source: Averaged Metar Reports

Daily Weather History Graph

Daily Weather History Graph

Search for Another Location

Airport or City:

Astronomy

Aug. 22, 2019 Rise Set
Actual Time 6:04 AM EDT 7:38 PM EDT
Civil Twilight 5:34 AM EDT 8:07 PM EDT
Nautical Twilight 4:59 AM EDT 8:43 PM EDT
Astronomical Twilight 4:21 AM EDT 9:20 PM EDT
Moon 11:20 PM EDT (8/22) 12:42 PM EDT (8/22)
Length of Visible Light 14h 33m
Length of Day
13h 34m
Waning Gibbous, 60% of the Moon is Illuminated
Aug 22
Waning Gibbous
Aug 23
Last Quarter
Aug 30
New
Sep 5
First Quarter
Sep 14
Full

Hourly Weather History & Observations

Time (EDT) Temp. Heat Index Dew Point Humidity Pressure Visibility Wind Dir Wind Speed Gust Speed Precip Events Conditions
12:46 AM 69.8 °F - 69.8 °F 100% 29.88 in 1.8 mi Calm Calm - N/A   Scattered Clouds
12:52 AM 69.1 °F - 68.0 °F 96% 29.88 in 0.8 mi Calm Calm - N/A   Mist
1:00 AM 69.1 °F - 69.1 °F 100% 29.88 in 2.0 mi Calm Calm - N/A   Mostly Cloudy
1:08 AM 69.1 °F - 69.1 °F 100% 29.88 in 1.2 mi Calm Calm - N/A   Overcast
1:33 AM 69.1 °F - 69.1 °F 100% 29.87 in 0.2 mi South 3.5 mph - N/A Fog Fog
1:48 AM 69.8 °F - 68.0 °F 94% 29.87 in 0.5 mi Calm Calm - N/A Fog Fog
1:52 AM 68.0 °F - 68.0 °F 100% 29.86 in 0.2 mi Calm Calm - N/A Fog Fog
2:52 AM 68.0 °F - 68.0 °F 100% 29.85 in 0.2 mi Calm Calm - N/A Fog Fog
3:13 AM 68.0 °F - 68.0 °F 100% 29.85 in 0.8 mi Calm Calm - N/A   Mist
3:22 AM 68.0 °F - 68.0 °F 100% 29.85 in 2.0 mi Calm Calm - N/A   Overcast
3:52 AM 69.1 °F - 68.0 °F 96% 29.83 in 6.0 mi Calm Calm - N/A   Overcast
4:48 AM 69.8 °F - 69.8 °F 100% 29.83 in 2.5 mi Calm Calm - N/A   Overcast
4:52 AM 69.1 °F - 69.1 °F 100% 29.83 in 3.0 mi Calm Calm - N/A   Overcast
5:21 AM 69.1 °F - 69.1 °F 100% 29.84 in 2.5 mi NNE 3.5 mph - N/A   Overcast
5:50 AM 69.8 °F - 69.8 °F 100% 29.84 in 1.5 mi Calm Calm - N/A   Overcast
5:52 AM 69.1 °F - 69.1 °F 100% 29.84 in 1.5 mi Calm Calm - N/A   Overcast
6:03 AM 69.1 °F - 69.1 °F 100% 29.85 in 2.0 mi NNW 3.5 mph - N/A   Overcast
6:31 AM 70.0 °F - 69.1 °F 97% 29.86 in 3.0 mi Calm Calm - N/A   Overcast
6:52 AM 70.0 °F - 69.1 °F 97% 29.86 in 2.5 mi Calm Calm - N/A   Overcast
6:59 AM 70.0 °F - 70.0 °F 100% 29.86 in 3.0 mi Calm Calm - N/A   Overcast
7:06 AM 71.1 °F - 70.0 °F 96% 29.86 in 2.5 mi Calm Calm - N/A   Overcast
7:11 AM 70.0 °F - 70.0 °F 100% 29.87 in 3.0 mi Calm Calm - N/A   Overcast
7:52 AM 73.0 °F - 72.0 °F 96% 29.86 in 5.0 mi Calm Calm - N/A   Overcast
8:45 AM 75.0 °F - 73.0 °F 94% 29.87 in 6.0 mi Calm Calm - N/A   Overcast
8:52 AM 75.0 °F - 73.0 °F 94% 29.87 in 6.0 mi Calm Calm - N/A   Mostly Cloudy
9:06 AM 75.9 °F - 73.0 °F 91% 29.87 in 7.0 mi SSW 3.5 mph - N/A   Mostly Cloudy
9:21 AM 75.9 °F - 73.0 °F 91% 29.87 in 8.0 mi South 3.5 mph - N/A   Mostly Cloudy
9:52 AM 78.1 °F - 73.0 °F 84% 29.86 in 10.0 mi Calm Calm - N/A   Scattered Clouds
10:40 AM 82.0 °F 87.9 °F 73.9 °F 76% 29.88 in 10.0 mi NW 4.6 mph - N/A   Mostly Cloudy
10:52 AM 80.1 °F 84.2 °F 73.0 °F 79% 29.87 in 10.0 mi Variable 6.9 mph - N/A   Mostly Cloudy
11:04 AM 82.0 °F 87.4 °F 73.0 °F 74% 29.87 in 10.0 mi West 6.9 mph - N/A   Scattered Clouds
11:52 AM 82.9 °F 88.0 °F 72.0 °F 69% 29.86 in 10.0 mi West 3.5 mph - N/A   Partly Cloudy
12:52 PM 84.9 °F 90.1 °F 71.1 °F 63% 29.85 in 10.0 mi NW 6.9 mph - N/A   Scattered Clouds
1:52 PM 87.1 °F 90.6 °F 68.0 °F 53% 29.85 in 10.0 mi NNW 10.4 mph - N/A   Clear
2:52 PM 84.9 °F 88.8 °F 69.1 °F 59% 29.85 in 10.0 mi West 6.9 mph - N/A   Mostly Cloudy
3:52 PM 87.1 °F 90.6 °F 68.0 °F 53% 29.84 in 10.0 mi WNW 6.9 mph - N/A   Partly Cloudy
4:52 PM 87.1 °F 88.9 °F 64.9 °F 48% 29.83 in 10.0 mi WNW 5.8 mph - N/A   Clear
5:52 PM 82.9 °F 85.8 °F 68.0 °F 60% 29.84 in 10.0 mi Calm Calm - N/A   Overcast
6:52 PM 75.9 °F - 70.0 °F 82% 29.87 in 10.0 mi SSW 4.6 mph - 0.00 in   Mostly Cloudy
7:52 PM 75.0 °F - 70.0 °F 84% 29.87 in 10.0 mi Calm Calm - N/A   Overcast
8:52 PM 75.0 °F - 71.1 °F 87% 29.87 in 10.0 mi North 3.5 mph - N/A   Overcast
9:52 PM 73.9 °F - 71.1 °F 91% 29.89 in 10.0 mi Calm Calm - N/A   Overcast
10:52 PM 73.0 °F - 71.1 °F 93% 29.90 in 10.0 mi SW 4.6 mph - 0.00 in   Mostly Cloudy
11:52 PM 73.0 °F - 71.1 °F 93% 29.92 in 10.0 mi SW 3.5 mph - 0.00 in Rain Light Rain